Findlay, OH

2:58 PM EDT on August 21, 2017 (GMT -0400)
Findlay

Weather History for KFDY - December, 2012

Change the Weather History Date:

Monday, December 10, 2012

  Actual Average Record
Temperature  
Mean Temperature 40 °F -  
Max Temperature 48 °F 36 °F 65 °F (1971)
Min Temperature 33 °F 24 °F -7 °F (1958)
Degree Days  
Heating Degree Days 24    
Moisture  
Dew Point 37 °F    
Average Humidity 92    
Maximum Humidity 100    
Minimum Humidity 73    
Precipitation  
Precipitation 0.07 in - - ()
Sea Level Pressure  
Sea Level Pressure 29.71 in    
Wind  
Wind Speed 11 mph (West)    
Max Wind Speed 18 mph    
Max Gust Speed 24 mph    
Visibility 6 miles    
Events Rain    
Averages and records for this station are not official NWS values.
T = Trace of Precipitation, MM = Missing Value Source: NWS Daily Summary

Daily Weather History Graph

Daily Weather History Graph

Search for Another Location

Airport or City:

Trip Planner

Search our weather history database for the weather conditions in past years. The results will help you decide how hot, cold, wet, or windy it might be!

Date:

Astronomy

Dec. 10, 2012 Rise Set
Actual Time 7:49 AM EST 5:06 PM EST
Civil Twilight 7:18 AM EST 5:37 PM EST
Nautical Twilight 6:43 AM EST 6:11 PM EST
Astronomical Twilight 6:10 AM EST 6:45 PM EST
Moon 4:30 AM EST (12/10) 2:55 PM EST (12/10)
Length of Visible Light 10h 19m
Length of Day
9h 17m
Waning Crescent, 10% of the Moon is Illuminated
Dec 10
Waning Crescent
Dec 13
New
Dec 20
First Quarter
Dec 28
Full
Jan 4
Last Quarter

Hourly Weather History & Observations

Time (EST) Temp. Windchill Dew Point Humidity Pressure Visibility Wind Dir Wind Speed Gust Speed Precip Events Conditions
12:03 AM 48.2 °F - 48.2 °F 100% 29.64 in 2.0 mi NW 4.6 mph - 0.03 in Rain Rain
12:15 AM 48.2 °F - 48.2 °F 100% 29.63 in 4.0 mi Calm Calm - 0.05 in Rain Light Rain
12:53 AM 48.9 °F - 48.0 °F 97% 29.64 in 5.0 mi West 6.9 mph - 0.06 in   Overcast
1:53 AM 46.9 °F - 46.0 °F 97% 29.64 in 7.0 mi West 12.7 mph - N/A   Overcast
2:24 AM 46.4 °F 40.1 °F 44.6 °F 93% 29.65 in 8.0 mi West 15.0 mph - N/A   Overcast
2:53 AM 46.0 °F 40.6 °F 45.0 °F 96% 29.65 in 6.0 mi West 11.5 mph - 0.00 in   Overcast
3:28 AM 46.4 °F 42.4 °F 44.6 °F 93% 29.64 in 3.0 mi West 8.1 mph - N/A   Overcast
3:53 AM 46.0 °F 41.0 °F 45.0 °F 96% 29.64 in 4.0 mi West 10.4 mph - N/A   Overcast
4:10 AM 46.4 °F 41.1 °F 44.6 °F 93% 29.64 in 2.5 mi West 11.5 mph - N/A   Overcast
4:19 AM 44.6 °F 37.8 °F 44.6 °F 100% 29.64 in 4.0 mi West 15.0 mph - N/A   Overcast
4:30 AM 44.6 °F 38.1 °F 44.6 °F 100% 29.64 in 6.0 mi West 13.8 mph - N/A   Overcast
4:53 AM 44.1 °F 37.4 °F 43.0 °F 96% 29.64 in 3.0 mi West 13.8 mph 21.9 mph N/A   Overcast
5:19 AM 42.8 °F 35.1 °F 42.8 °F 100% 29.65 in 1.8 mi WSW 16.1 mph - N/A   Overcast
5:29 AM 42.8 °F 35.8 °F 42.8 °F 100% 29.64 in 3.0 mi WSW 13.8 mph - N/A   Overcast
5:53 AM 42.1 °F 33.6 °F 41.0 °F 96% 29.65 in 3.0 mi West 18.4 mph 24.2 mph N/A   Overcast
6:29 AM 39.2 °F 30.5 °F 39.2 °F 100% 29.65 in 5.0 mi West 16.1 mph - N/A   Overcast
6:53 AM 39.9 °F 30.8 °F 39.0 °F 97% 29.67 in 6.0 mi West 18.4 mph 21.9 mph N/A   Overcast
7:53 AM 39.9 °F 32.1 °F 37.0 °F 89% 29.68 in 7.0 mi West 13.8 mph - N/A   Overcast
8:34 AM 39.2 °F 31.6 °F 33.8 °F 81% 29.70 in 10.0 mi West 12.7 mph - N/A   Mostly Cloudy
8:53 AM 39.0 °F 30.6 °F 35.1 °F 86% 29.70 in 10.0 mi WSW 15.0 mph - N/A   Mostly Cloudy
9:53 AM 37.9 °F 30.0 °F 33.1 °F 83% 29.70 in 10.0 mi West 12.7 mph 21.9 mph N/A   Overcast
10:53 AM 39.0 °F 30.3 °F 32.0 °F 76% 29.69 in 10.0 mi WNW 16.1 mph 21.9 mph N/A   Scattered Clouds
11:11 AM 39.2 °F 30.2 °F 32.0 °F 75% 29.69 in 10.0 mi WNW 17.3 mph - N/A   Mostly Cloudy
11:53 AM 39.0 °F 30.3 °F 32.0 °F 76% 29.68 in 10.0 mi WNW 16.1 mph - N/A   Overcast
12:53 PM 37.9 °F 28.9 °F 32.0 °F 79% 29.68 in 10.0 mi WNW 16.1 mph 23.0 mph N/A   Overcast
1:53 PM 39.0 °F 31.4 °F 30.9 °F 73% 29.68 in 10.0 mi West 12.7 mph - N/A   Overcast
2:53 PM 37.0 °F 27.7 °F 32.0 °F 82% 29.69 in 8.0 mi West 16.1 mph - N/A   Overcast
3:19 PM 35.6 °F 25.5 °F 32.0 °F 87% 29.70 in 6.0 mi West 17.3 mph - N/A   Overcast
3:53 PM 36.0 °F 27.5 °F 30.9 °F 82% 29.71 in 7.0 mi West 12.7 mph 21.9 mph N/A   Overcast
4:53 PM 34.0 °F 26.0 °F 30.9 °F 89% 29.73 in 5.0 mi WSW 10.4 mph - N/A   Overcast
5:09 PM 33.8 °F 25.8 °F 32.0 °F 93% 29.72 in 5.0 mi West 10.4 mph - N/A   Overcast
5:53 PM 34.0 °F 25.0 °F 30.9 °F 89% 29.75 in 6.0 mi West 12.7 mph - N/A   Overcast
6:53 PM 34.0 °F 24.6 °F 30.9 °F 89% 29.78 in 5.0 mi West 13.8 mph - N/A   Overcast
7:53 PM 33.1 °F 23.9 °F 32.0 °F 96% 29.80 in 2.5 mi West 12.7 mph - N/A   Overcast
8:53 PM 33.1 °F 25.5 °F 32.0 °F 96% 29.82 in 2.5 mi West 9.2 mph - N/A   Overcast
9:35 PM 33.8 °F 25.8 °F 33.8 °F 100% 29.82 in 4.0 mi West 10.4 mph - 0.01 in Rain Light Rain
9:53 PM 34.0 °F 27.2 °F 33.1 °F 96% 29.84 in 4.0 mi WNW 8.1 mph - 0.01 in   Overcast
10:16 PM 33.8 °F 28.6 °F 33.8 °F 100% 29.83 in 5.0 mi West 5.8 mph - N/A   Overcast
10:27 PM 33.8 °F 29.6 °F 33.8 °F 100% 29.84 in 5.0 mi West 4.6 mph - N/A   Overcast
10:53 PM 34.0 °F 28.0 °F 30.9 °F 89% 29.86 in 6.0 mi West 6.9 mph - N/A   Overcast
11:26 PM 33.8 °F 27.7 °F 32.0 °F 93% 29.86 in 5.0 mi West 6.9 mph - N/A   Overcast
11:39 PM 33.8 °F 27.0 °F 32.0 °F 93% 29.86 in 4.0 mi West 8.1 mph - N/A   Overcast
11:53 PM 34.0 °F 28.0 °F 32.0 °F 92% 29.87 in 4.0 mi WSW 6.9 mph - N/A   Overcast